Regional Weather Roundup
Issued by NWS

Home | Current Version | Previous Version | Graphics & Text | Print | Product List | Glossary On
Versions: 1 2 3 4 5 6 7 8 9 10 11 12 13 14 15 16 17 18 19 20 21 22 23 24 25 26 27 28 29 30 31 32 33 34 35 36 37 38 39 40 41 42 43 44 45 46 47 48 49 50
000
ASUS43 KLOT 240803
RWRIL

ILLINOIS REGIONAL WEATHER ROUNDUP
NATIONAL WEATHER SERVICE CHICAGO/ROMEOVILLE IL
300 AM CDT FRI MAR 24 2017

NOTE: "FAIR" INDICATES FEW OR NO CLOUDS BELOW 12,000 FEET WITH NO
SIGNIFICANT WEATHER AND/OR OBSTRUCTIONS TO VISIBILITY.

* THESE STATIONS ARE NOT UNDER NWS QUALITY CONTROL. THEY ALSO MAY NOT
  REPORT WEATHER SUCH AS PRECIPITATION OR FOG.

ILZ001-002-007-009-015-016-024-240900-
NORTHWEST ILLINOIS

CITY           SKY/WX    TMP DP  RH WIND       PRES   REMARKS
MOLINE         PTCLDY    52  43  71 S8        29.87F
STERLING*      CLOUDY    48  42  80 VRB5      29.90F
SAVANNA*       MOCLDY    43  39  85 S7        29.88F
$$

ILZ003-004-008-010-011-017-018-240900-
NORTH CENTRAL ILLINOIS

CITY           SKY/WX    TMP DP  RH WIND       PRES   REMARKS
ROCKFORD       CLOUDY    45  37  73 S8G21     29.92F
FREEPORT*      MOCLDY    43  37  80 S8        29.90F
ROCHELLE*      CLOUDY    42  37  80 S8        29.92F
DE KALB*       PTCLDY    42  36  79 S9        29.94F
PERU*          CLOUDY    44  39  81 S7        29.95R
$$

ILZ005-006-012>014-019>023-240900-
NORTHEAST ILLINOIS

CITY           SKY/WX    TMP DP  RH WIND       PRES   REMARKS
CHICAGO-OHARE  MOCLDY    47  36  65 S13       29.95F
CHICAGO-MIDWAY MOCLDY    48  36  63 VRB5      29.98R
AURORA         PTCLDY    44  36  73 SE7       29.95F
LANSING*       PTCLDY    42  36  76 S3        29.98F
JOLIET*        CLOUDY    49  40  71 S5        29.96F
WAUKEGAN       CLEAR     47  37  68 SW18      29.92F
DUPAGE AIRPORT PTCLDY    46  39  76 S9        29.94F
KANKAKEE*      PTCLDY    47  39  72 CALM      29.97F
WHEELING       CLEAR     46  37  71 S12       29.96F
MORRIS*        CLOUDY    46  38  75 CALM      29.95F
ROMEOVILLE*    CLOUDY    45  40  83 S5        29.97R
NORTHERLY ISL    N/A     43  33  68 S5          N/A
$$

LMZ740>746-240900-
SOUTHERN LAKE MICHIGAN

STATION/POSITION SKY/WX   TEMP    WIND        PRES    VSBY  WAVE
                          AIR SEA DIR/SP/G                  HT/PER
                          (F)     (DEG/KT/KT) (MB)    (MI)  (FT/S)
HARRISON CRIB              49     180/ 20/ 21   N/A
BURNHAM HARBOR             43     160/  5/  7   N/A
CALUMET HARBOR             47     160/  5/  7 1014.5F
BURNS HARBOR               49     170/  8/ 13 1015.6F
MICHIGAN CITY              49     160/  6/  7   N/A
$$

ILZ025>027-034>036-040-047-049-050-058-095>099-240900-
WEST-CENTRAL ILLINOIS

CITY           SKY/WX    TMP DP  RH WIND       PRES   REMARKS
QUINCY         CLOUDY    57  47  69 S9        29.89S
GALESBURG*     CLOUDY    48  43  82 SE9       29.89S
MACOMB*        CLOUDY    46  43  90 SE6       29.92S
JACKSONVILLE*  CLOUDY    51  43  75 S8        29.92F
PITTSFIELD*    CLOUDY    58  48  68 S8        29.92S
$$

ILZ028>032-037-038-041>044-048-051>054-059>061-240900-
CENTRAL ILLINOIS

CITY           SKY/WX    TMP DP  RH WIND       PRES   REMARKS
PONTIAC        PTCLDY    49  42  77 S9        29.95F
BLOOMINGTON    CLOUDY    47  40  76 S16       29.95F
DECATUR        CLEAR     52  43  71 S16       29.96F
PEORIA         CLOUDY    47  41  80 S12       29.94S
LACON*         CLOUDY    51  42  70 S12G20    29.91S
LINCOLN*       CLOUDY    48  43  81 S9        29.95S
SPRINGFIELD    CLOUDY    50  43  77 S10       29.94F
TAYLORVILLE    NOT AVBL
$$

ILZ033-039-045-046-055>057-062-063-240900-
EAST-CENTRAL ILLINOIS

CITY           SKY/WX    TMP DP  RH WIND       PRES   REMARKS
CHAMPAIGN      CLOUDY    51  41  68 S15       29.98F
RANTOUL*       PTCLDY    50  43  76 S13       29.97F
MATTOON        CLOUDY    54  44  69 S17G24    29.98F
PARIS*         CLOUDY    52  43  72 S15       30.01F
$$

ILZ079-100>102-240900-
SOUTHWEST ILLINOIS

CITY           SKY/WX    TMP DP  RH WIND       PRES   REMARKS
ALTON          CLOUDY    47  42  82 E6        29.95F
BELLEVILLE     CLEAR     50  46  86 SE5       29.95F
CAHOKIA*       CLOUDY    51  43  74 SE3       29.94F
SPARTA*        CLEAR     63  51  64 S16G22    29.99F
$$

ILZ064>066-069>071-074>076-080>082-084>086-088>090-092>094-240900-
SOUTH-CENTRAL ILLINOIS

CITY           SKY/WX    TMP DP  RH WIND       PRES   REMARKS
CARBONDALE     CLEAR     59  49  69 S10       30.02F
CAIRO*         CLEAR     62  51  67 SE12      30.06S
EFFINGHAM*     CLEAR     52  45  76 SE12      30.01F
MARION         CLEAR     61  50  67 S17G23    30.04S
MT. VERNON     CLEAR     52  45  77 S6        30.01F
CENTRALIA*     CLEAR     57  48  71 S14       29.98F
SALEM*         CLEAR     55  45  69 SE9       30.00F
METROPOLIS*    CLEAR     56  48  75 SE5       30.08S
$$

ILZ067-068-072-073-078-083-087-091-240900-
SOUTHEAST ILLINOIS

CITY           SKY/WX    TMP DP  RH WIND       PRES   REMARKS
LAWRENCEVILLE  CLEAR     53  44  71 S12       30.06F
FLORA*         CLEAR     52  46  79 S12       30.02F
FAIRFIELD*     CLEAR     54  46  74 SE7       30.03F
HARRISBURG*    CLEAR     52  47  84 SE8       30.06S
ROBINSON*      CLEAR     54  44  68 S14       30.04F
CARMI*         CLEAR     50  46  85 SE9       30.06F
$$

ABBREVIATIONS USED IN REMARKS
   TC - TEMPERATURE IN CELSIUS
  WCI - WIND CHILL INDEX
   HX - HEAT INDEX
  VSB - VISIBILITY
$$




USA.gov is the U.S. government's official web portal to all federal, state and local government web resources and services.